sat.trackr.live / text

‹ back to catalog

STARLINK-36985

NORAD 68014 · 2026-039AE

PAYLOAD ACTIVE UNKNOWN

§ Identity

Operator
Country
US
Launch date
2026-02-27
Launch site
AFETR
Launch vehicle
Mass (kg)
RCS (m²)

Purposes: comms

External: N2YO · Heavens-Above · Gunter

§ Orbital elements

Epoch: 2026-05-24T20:17:15.882144Z

Period
94.27 min
Inclination
43.0024°
Eccentricity
0.0001488
Mean motion
15.27587091 rev/d
Perigee alt
482.0 km
Apogee alt
484.0 km
Semi-major
6,861.2 km
B*
4.0458e-4
RAAN
338.5477°
Arg perigee
274.4436°
Mean anomaly
85.6246°
Rev number
1,335

§ Raw data

STARLINK-369851 68014U 26039AE  26144.84532271  .00010890  00000+0  40458-3 0  99992 68014  43.0024 338.5477 0001488 274.4436  85.6246 15.27587091 13350

JSON: /api/v1/satellites/68014 · /tle

For live sub-satellite position, see the globe view (requires WebGL).

§ Visibility from observer

Set your observer location to see the next 7 days of passes ≥ 10°. The values pass through the URL so the page stays shareable.

No JS? Fill the form by hand. The geolocation button needs JavaScript.